Overview Statistics Trail Chart Weather Telemetry Raw packets
 

This is the latest recevied weather packets stored in our database for station/object KE8WMS. If no packets are shown the sender has not sent any weather packets the latest 10 day(s).

<< 12 13 14 15 16 17 18 >>
Time Temp. Humidity Pressure Rain* Wind** Luminosity Snow
1777734091 4.44° C 81% 1014.9 hPa 0 mm - 203 W/m² -
1777733788 4.44° C 84% 1015.1 hPa 0 mm - 233 W/m² -
1777733485 3.89° C 84% 1014.9 hPa 0 mm - 219 W/m² -
1777733180 4.44° C 87% 1014.9 hPa 0 mm - 197 W/m² -
1777732877 3.89° C 86% 1015.1 hPa 0 mm - 173 W/m² -
1777732574 3.33° C 88% 1015 hPa 0 mm - 175 W/m² -
1777732272 3.89° C 91% 1015 hPa 0 mm - 113 W/m² -
1777731969 3.89° C 93% 1014.9 hPa 0 mm - 148 W/m² -
1777731665 3.89° C 94% 1015 hPa 0 mm - 168 W/m² -
1777731363 3.33° C 94% 1014.9 hPa 0 mm - 171 W/m² -
1777731060 3.33° C 94% 1014.6 hPa 0 mm - 87 W/m² -
1777730759 3.33° C 94% 1014.9 hPa 0 mm - 93 W/m² -
1777730455 3.33° C 95% 1014.8 hPa 0 mm - 105 W/m² -
1777730150 3.33° C 95% 1014.8 hPa 0 mm - 124 W/m² -
1777729848 3.33° C 95% 1014.7 hPa 0 mm - 117 W/m² -
1777729544 2.78° C 95% 1014.6 hPa 0 mm - 137 W/m² -
1777729241 2.78° C 96% 1014.7 hPa 0 mm - 150 W/m² -
1777728938 2.78° C 96% 1014.7 hPa 0 mm - 140 W/m² -
1777728635 2.78° C 96% 1014.9 hPa 0 mm - 171 W/m² -
1777728332 2.78° C 97% 1014.7 hPa 0 mm - 148 W/m² -
1777728029 2.78° C 97% 1014.8 hPa 0 mm - 145 W/m² -
1777727726 2.22° C 97% 1014.9 hPa 0 mm - 121 W/m² -
1777727422 2.22° C 97% 1014.7 hPa 0 mm - 107 W/m² -
1777727120 2.78° C 98% 1014.6 hPa 0 mm - 98 W/m² -
1777726818 2.22° C 98% 1014.8 hPa 0 mm - 94 W/m² -

* Rain latest hour (hover to see other rain measurements)
** Current wind speed in m/s (hover to see current wind gust speed)